H1 CPF 2 NER 2021 10 4 9 277 01 glonass141 H2 1908801 9141 44850 2021 10 4 0 0 0 2021 10 7 23 45 0 900 1 1 0 0 0 1 H9 10 0 59491 0.00000 0 -11341936.273 22780649.737 -1821074.270 10 0 59491 900.00000 0 -11208821.414 22879108.208 1397147.435 10 0 59491 1800.00000 0 -10917729.716 22603445.506 4588254.020 10 0 59491 2700.00000 0 -10523152.499 21940778.436 7690330.335 10 0 59491 3600.00000 0 -10081968.878 20891388.734 10643223.215 10 0 59491 4500.00000 0 -9650844.066 19468852.856 13389703.567 10 0 59491 5400.00000 0 -9283650.836 17699631.474 15876569.085 10 0 59491 6300.00000 0 -9029022.833 15622135.945 18055666.823 10 0 59491 7200.00000 0 -8928142.547 13285310.775 19884816.487 10 0 59491 8100.00000 0 -9012856.605 10746790.851 21328617.628 10 0 59491 9000.00000 0 -9304197.213 8070709.487 22359126.164 10 0 59491 9900.00000 0 -9811371.459 5325247.614 22956388.154 10 0 59491 10800.00000 0 -10531260.824 2580024.575 23108821.415 10 0 59491 11700.00000 0 -11448452.083 -96562.604 22813438.273 10 0 59491 12600.00000 0 -12535798.883 -2639942.624 22075905.371 10 0 59491 13500.00000 0 -13755491.396 -4991809.594 20910439.363 10 0 59491 14400.00000 0 -15060590.482 -7102299.239 19339539.964 10 0 59491 15300.00000 0 -16396963.467 -8931812.451 17393564.718 10 0 59491 16200.00000 0 -17705541.800 -10452411.356 15110152.631 10 0 59491 17100.00000 0 -18924807.225 -11648730.524 12533506.537 10 0 59491 18000.00000 0 -19993403.036 -12518365.615 9713546.918 10 0 59491 18900.00000 0 -20852761.331 -13071723.501 6704952.438 10 0 59491 19800.00000 0 -21449635.853 -13331340.211 3566104.916 10 0 59491 20700.00000 0 -21738433.410 -13330695.327 357958.727 10 0 59491 21600.00000 0 -21683244.801 -13112572.852 -2857143.566 10 0 59491 22500.00000 0 -21259488.403 -12727037.823 -6016686.194 10 0 59491 23400.00000 0 -20455095.637 -12229114.490 -9059201.489 10 0 59491 24300.00000 0 -19271186.724 -11676264.773 -11925473.075 10 0 59491 25200.00000 0 -17722206.600 -11125774.427 -14559696.606 10 0 59491 26100.00000 0 -15835513.825 -10632158.413 -16910574.481 10 0 59491 27000.00000 0 -13650438.475 -10244696.260 -18932322.399 10 0 59491 27900.00000 0 -11216847.531 -10005202.685 -20585567.500 10 0 59491 28800.00000 0 -8593277.267 -9946128.651 -21838120.028 10 0 59491 29700.00000 0 -5844710.293 -10089073.941 -22665603.291 10 0 59491 30600.00000 0 -3040089.894 -10443774.689 -23051929.539 10 0 59491 31500.00000 0 -249675.330 -11007609.065 -22989612.594 10 0 59491 32400.00000 0 2457651.771 -11765642.245 -22479911.333 10 0 59491 33300.00000 0 5017017.898 -12691208.890 -21532801.490 10 0 59491 34200.00000 0 7370015.679 -13747008.509 -20166776.619 10 0 59491 35100.00000 0 9466887.653 -14886667.427 -18408482.385 10 0 59491 36000.00000 0 11268345.585 -16056701.281 -16292191.572 10 0 59491 36900.00000 0 12746950.478 -17198795.017 -13859130.376 10 0 59491 37800.00000 0 13887997.078 -18252303.960 -11156669.415 10 0 59491 38700.00000 0 14689867.564 -19156870.194 -8237395.560 10 0 59491 39600.00000 0 15163841.380 -19855043.624 -5158083.158 10 0 59491 40500.00000 0 15333371.199 -20294796.957 -1978585.111 10 0 59491 41400.00000 0 15232857.392 -20431828.446 1239334.143 10 0 59491 42300.00000 0 14905974.347 -20231555.287 4433200.490 10 0 59491 43200.00000 0 14403620.792 -19670713.733 7541043.173 10 0 59491 44100.00000 0 13781581.760 -18738498.733 10502595.201 10 0 59491 45000.00000 0 13098001.645 -17437195.340 13260457.782 10 0 59491 45900.00000 0 12410775.392 -15782275.471 15761206.469 10 0 59491 46800.00000 0 11774967.793 -13801955.987 17956418.135 10 0 59491 47700.00000 0 11240369.309 -11536236.410 19803599.590 10 0 59491 48600.00000 0 10849290.734 -9035456.033 21267000.849 10 0 59491 49500.00000 0 10634688.723 -6358429.796 22318298.411 10 0 59491 50400.00000 0 10618700.264 -3570239.581 22937136.299 10 0 59491 51300.00000 0 10811647.049 -739771.355 23111515.355 10 0 59491 52200.00000 0 11211551.227 2062901.131 22838023.896 10 0 59491 53100.00000 0 11804182.883 4769179.098 22121905.582 10 0 59491 54000.00000 0 12563637.680 7314539.239 20976963.124 10 0 59491 54900.00000 0 13453421.200 9640965.630 19425299.207 10 0 59491 55800.00000 0 14427995.546 11699113.403 17496898.834 10 0 59491 56700.00000 0 15434724.453 13450115.379 15229060.107 10 0 59491 57600.00000 0 16416136.419 14866957.261 12665683.194 10 0 59491 58500.00000 0 17312411.678 15935364.455 9856430.048 10 0 59491 59400.00000 0 18063989.095 16654163.716 6855770.069 10 0 59491 60300.00000 0 18614183.464 17035104.501 3721929.265 10 0 59491 61200.00000 0 18911702.659 17102147.424 515762.876 10 0 59491 62100.00000 0 18912957.804 16890249.667 -2700426.892 10 0 59491 63000.00000 0 18584067.855 16443698.543 -5864104.863 10 0 59491 63900.00000 0 17902472.538 15814063.648 -8913724.405 10 0 59491 64800.00000 0 16858083.915 15057854.452 -11789932.024 10 0 59491 65700.00000 0 15453926.217 14233982.874 -14436730.703 10 0 59491 66600.00000 0 13706235.315 13401138.797 -16802578.338 10 0 59491 67500.00000 0 11644012.021 12615190.329 -18841399.094 10 0 59491 68400.00000 0 9308046.645 11926719.466 -20513487.295 10 0 59491 69300.00000 0 6749454.694 11378798.116 -21786285.675 10 0 59491 70200.00000 0 4027784.230 11005098.998 -22635022.599 10 0 59491 71100.00000 0 1208773.455 10828421.655 -23043195.757 10 0 59491 72000.00000 0 -1638148.106 10859695.980 -23002892.941 10 0 59491 72900.00000 0 -4442510.872 11097505.360 -22514943.904 10 0 59491 73800.00000 0 -7135498.675 11528149.349 -21588900.575 10 0 59491 74700.00000 0 -9652572.366 12126242.911 -20242846.309 10 0 59491 75600.00000 0 -11935914.768 12855826.525 -18503038.209 10 0 59491 76500.00000 0 -13936595.657 13671939.798 -16403389.726 10 0 59491 77400.00000 0 -15616367.295 14522591.612 -13984803.971 10 0 59491 78300.00000 0 -16949016.700 15351043.109 -11294371.025 10 0 59491 79200.00000 0 -17921219.507 16098306.567 -8384445.218 10 0 59491 80100.00000 0 -18532861.231 16705754.151 -5311620.833 10 0 59491 81000.00000 0 -18796814.249 17117725.971 -2135626.616 10 0 59491 81900.00000 0 -18738181.707 17284026.961 1081838.938 10 0 59491 82800.00000 0 -18393041.870 17162207.010 4278308.305 10 0 59491 83700.00000 0 -17806747.459 16719528.006 7391757.983 10 0 59491 84600.00000 0 -17031852.909 15934534.878 10361810.102 10 0 59491 85500.00000 0 -16125757.923 14798164.526 13130899.154 10 0 59492 0.00000 0 -15148167.272 13314346.170 15645381.299 10 0 59492 900.00000 0 -14158473.451 11500066.964 17856566.583 10 0 59492 1800.00000 0 -13213173.446 9384901.987 19721651.421 10 0 59492 2700.00000 0 -12363425.907 7010025.099 21204538.840 10 0 59492 3600.00000 0 -11652851.858 4426743.105 22276528.194 10 0 59492 4500.00000 0 -11115669.828 1694612.502 22916863.428 10 0 59492 5400.00000 0 -10775242.819 -1120784.053 23113130.001 10 0 59492 6300.00000 0 -10643097.287 -3950310.834 22861493.430 10 0 59492 7200.00000 0 -10718454.818 -6723900.632 22166775.171 10 0 59492 8100.00000 0 -10988295.957 -9373217.855 21042364.331 10 0 59492 9000.00000 0 -11427953.798 -11834254.328 19509966.439 10 0 59492 9900.00000 0 -12002212.958 -14049751.379 17599193.376 10 0 59492 10800.00000 0 -12666868.626 -15971348.809 15347001.304 10 0 59492 11700.00000 0 -13370681.064 -17561372.177 12796986.249 10 0 59492 12600.00000 0 -14057644.246 -18794184.325 9998549.773 10 0 59492 13500.00000 0 -14669473.753 -19657044.969 7005949.784 10 0 59492 14400.00000 0 -15148209.449 -20150442.311 3877253.951 10 0 59492 15300.00000 0 -15438823.051 -20287882.545 673215.563 10 0 59492 16200.00000 0 -15491720.003 -20095145.880 -2543906.574 10 0 59492 17100.00000 0 -15265029.014 -19609040.174 -5711561.123 10 0 59492 18000.00000 0 -14726581.200 -18875704.642 -8768125.908 10 0 59492 18900.00000 0 -13855493.597 -17948535.317 -11654113.859 10 0 59492 19800.00000 0 -12643288.396 -16885820.158 -14313338.861 10 0 59492 20700.00000 0 -11094498.868 -15748184.174 -16694017.825 10 0 59492 21600.00000 0 -9226734.681 -14595953.074 -18749786.716 10 0 59492 22500.00000 0 -7070202.229 -13486547.432 -20440610.068 10 0 59492 23400.00000 0 -4666698.811 -12472017.971 -21733565.700 10 0 59492 24300.00000 0 -2068121.708 -11596826.464 -22603489.110 10 0 59492 25200.00000 0 665446.296 -10895966.130 -23033464.907 10 0 59492 26100.00000 0 3467995.449 -10393500.846 -23015155.731 10 0 59492 27000.00000 0 6270097.784 -10101584.586 -22548962.506 10 0 59492 27900.00000 0 9001561.795 -10020001.983 -21644013.097 10 0 59492 28800.00000 0 11594122.552 -10136248.808 -20317979.916 10 0 59492 29700.00000 0 13984055.459 -10426148.196 -18596730.290 10 0 59492 30600.00000 0 16114605.186 -10854975.800 -16513816.696 10 0 59492 31500.00000 0 17938128.921 -11379045.484 -14109817.097 10 0 59492 32400.00000 0 19417865.364 -11947687.717 -11431538.566 10 0 59492 33300.00000 0 20529256.586 -12505536.252 -8531100.038 10 0 59492 34200.00000 0 21260768.663 -12995025.686 -5464912.550 10 0 59492 35100.00000 0 21614178.233 -13358993.680 -2292577.249 10 0 59492 36000.00000 0 21604314.571 -13543277.301 924276.901 10 0 59492 36900.00000 0 21258269.634 -13499193.372 4123192.570 10 0 59492 37800.00000 0 20614110.906 -13185797.820 7242097.012 10 0 59492 38700.00000 0 19719152.570 -12571828.491 10220504.738 10 0 59492 39600.00000 0 18627858.868 -11637249.490 13000686.463 10 0 59492 40500.00000 0 17399468.593 -10374331.957 15528781.931 10 0 59492 41400.00000 0 16095440.958 -8788225.717 17755835.566 10 0 59492 42300.00000 0 14776830.063 -6896997.607 19638735.557 10 0 59492 43200.00000 0 13501697.739 -4731134.373 21141039.203 10 0 59492 44100.00000 0 12322672.475 -2332530.136 22233669.575 10 0 59492 45000.00000 0 11284755.758 247000.296 22895471.040 10 0 59492 45900.00000 0 10423466.591 2947621.752 23113613.826 10 0 59492 46800.00000 0 9763400.807 5703715.214 22883840.488 10 0 59492 47700.00000 0 9317264.634 8446359.268 22210549.830 10 0 59492 48600.00000 0 9085422.324 11105955.295 21106716.655 10 0 59492 49500.00000 0 9055976.539 13614889.158 19593648.416 10 0 59492 50400.00000 0 9205378.163 15910120.309 17700582.742 10 0 59492 51300.00000 0 9499540.330 17935591.978 15464132.540 10 0 59492 52200.00000 0 9895410.397 19644363.108 12927588.198 10 0 59492 53100.00000 0 10342934.404 21000373.607 10140089.205 10 0 59492 54000.00000 0 10787331.833 21979769.456 7155680.101 10 0 59492 54900.00000 0 11171585.120 22571732.130 4032268.145 10 0 59492 55800.00000 0 11439038.868 22778777.172 830502.427 10 0 59492 56700.00000 0 11535998.599 22616509.032 -2387404.041 10 0 59492 57600.00000 0 11414218.420 22112841.997 -5558886.249 10 0 59492 58500.00000 0 11033171.247 21306719.709 -8622249.000 10 0 59492 59400.00000 0 10362004.113 20246387.090 -11517874.129 10 0 59492 60300.00000 0 9381094.182 18987287.574 -14189388.836 10 0 59492 61200.00000 0 8083137.938 17589674.609 -16584771.345 10 0 59492 62100.00000 0 6473725.760 16116038.583 -18657371.597 10 0 59492 63000.00000 0 4571375.877 14628458.161 -20366826.377 10 0 59492 63900.00000 0 2407024.805 13185988.188 -21679850.486 10 0 59492 64800.00000 0 22994.237 11842194.620 -22570888.293 10 0 59492 65700.00000 0 -2528523.340 10642940.481 -23022612.860 10 0 59492 66600.00000 0 -5187397.709 9624516.077 -23026262.952 10 0 59492 67500.00000 0 -7887832.483 8812191.866 -22581811.595 10 0 59492 68400.00000 0 -10560880.720 8219254.308 -21697963.113 10 0 59492 69300.00000 0 -13137099.887 7846564.516 -20391979.021 10 0 59492 70200.00000 0 -15549235.672 7682657.267 -18689336.438 10 0 59492 71100.00000 0 -17734823.024 7704375.043 -16623225.947 10 0 59492 72000.00000 0 -19638596.155 7878009.175 -14233899.028 10 0 59492 72900.00000 0 -21214607.451 8160898.675 -11567878.056 10 0 59492 73800.00000 0 -22427967.437 8503418.054 -8677044.605 10 0 59492 74700.00000 0 -23256133.886 8851269.048 -5617624.286 10 0 59492 75600.00000 0 -23689697.269 9147978.374 -2449088.311 10 0 59492 76500.00000 0 -23732630.885 9337495.129 767006.352 10 0 59492 77400.00000 0 -23401996.596 9366777.342 3968215.155 10 0 59492 78300.00000 0 -22727119.979 9188257.921 7092418.805 10 0 59492 79200.00000 0 -21748270.858 8762085.537 10079026.980 10 0 59492 80100.00000 0 -20514905.825 8058045.705 12870149.457 10 0 59492 81000.00000 0 -19083547.419 7057081.022 15411712.189 10 0 59492 81900.00000 0 -17515389.464 5752346.424 17654497.201 10 0 59492 82800.00000 0 -15873729.117 4149754.990 19555086.839 10 0 59492 83700.00000 0 -14221332.899 2267990.952 21076695.067 10 0 59492 84600.00000 0 -12617846.271 137988.723 22189870.786 10 0 59492 85500.00000 0 -11117354.159 -2198101.206 22873060.543 10 0 59493 0.00000 0 -9766193.306 -4688417.435 23113020.730 10 0 59493 900.00000 0 -8601105.919 -7273304.103 22905072.002 10 0 59493 1800.00000 0 -7647812.396 -9887557.189 22253191.106 10 0 59493 2700.00000 0 -6920059.326 -12462913.591 21169938.793 10 0 59493 3600.00000 0 -6419183.734 -14930678.013 19676224.321 10 0 59493 4500.00000 0 -6134210.655 -17224381.332 17800910.580 10 0 59493 5400.00000 0 -6042479.971 -19282361.045 15580266.377 10 0 59493 6300.00000 0 -6110776.385 -21050157.359 13057275.281 10 0 59493 7200.00000 0 -6296915.363 -22482625.542 10280813.195 10 0 59493 8100.00000 0 -6551718.684 -23545676.551 7304709.499 10 0 59493 9000.00000 0 -6821296.549 -24217572.981 4186708.979 10 0 59493 9900.00000 0 -7049540.049 -24489725.501 987354.231 10 0 59493 10800.00000 0 -7180718.370 -24366955.821 -2231190.055 10 0 59493 11700.00000 0 -7162070.321 -23867214.409 -5406347.952 10 0 59493 12600.00000 0 -6946279.552 -23020764.252 -8476354.187 10 0 59493 13500.00000 0 -6493727.424 -21868864.577 -11381462.652 10 0 59493 14400.00000 0 -5774426.637 -20462009.709 -14065117.126 10 0 59493 15300.00000 0 -4769552.140 -18857797.275 -16475060.462 10 0 59493 16200.00000 0 -3472502.881 -17118515.729 -18564359.824 10 0 59493 17100.00000 0 -1889447.777 -15308553.065 -20292327.314 10 0 59493 18000.00000 0 -39331.343 -13491736.194 -21625317.487 10 0 59493 18900.00000 0 2046662.787 -11728713.203 -22537385.949 10 0 59493 19800.00000 0 4326169.127 -10074488.687 -23010796.114 10 0 59493 20700.00000 0 6747175.036 -8576215.750 -23036364.261 10 0 59493 21600.00000 0 9249969.351 -7271337.088 -22613636.399 10 0 59493 22500.00000 0 11769424.012 -6186152.614 -21750893.699 10 0 59493 23400.00000 0 14237513.618 -5334872.981 -20464986.688 10 0 59493 24300.00000 0 16585967.956 -4719197.593 -18781001.711 10 0 59493 25200.00000 0 18748946.920 -4328433.513 -16731766.437 10 0 59493 26100.00000 0 20665626.203 -4140148.811 -14357204.343 10 0 59493 27000.00000 0 22282586.030 -4121331.254 -11703551.107 10 0 59493 27900.00000 0 23555903.448 -4230001.926 -8822448.460 10 0 59493 28800.00000 0 24452861.153 -4417214.234 -5769933.662 10 0 59493 29700.00000 0 24953202.083 -4629352.530 -2605344.710 10 0 59493 30600.00000 0 25049878.163 -4810632.033 609836.971 10 0 59493 31500.00000 0 24749262.878 -4905693.497 3813183.273 10 0 59493 32400.00000 0 24070819.966 -4862182.221 6942531.989 10 0 59493 33300.00000 0 23046243.307 -4633201.952 9937191.453 10 0 59493 34200.00000 0 21718105.168 -4179539.832 12739113.738 10 0 59493 35100.00000 0 20138070.360 -3471568.346 15294013.908 10 0 59493 36000.00000 0 18364751.702 -2490744.099 17552414.114 10 0 59493 36900.00000 0 16461296.807 -1230640.230 19470592.989 10 0 59493 37800.00000 0 14492806.938 302531.105 21011422.905 10 0 59493 38700.00000 0 12523695.185 2089928.651 22145079.934 10 0 59493 39600.00000 0 10615093.385 4100624.632 22849613.781 10 0 59493 40500.00000 0 8822414.765 6292658.469 23111367.596 10 0 59493 41400.00000 0 7193172.637 8614559.086 22925240.258 10 0 59493 42300.00000 0 5765144.754 11007273.933 22294786.381 10 0 59493 43200.00000 0 4564958.612 13406426.226 21232152.139 10 0 59493 44100.00000 0 3607155.676 15744808.291 19757847.730 10 0 59493 45000.00000 0 2893772.986 17955008.833 17900360.127 10 0 59493 45900.00000 0 2414459.094 19972066.193 15695612.577 10 0 59493 46800.00000 0 2147119.222 21736038.128 13186280.112 10 0 59493 47700.00000 0 2059062.655 23194381.482 10420973.128 10 0 59493 48600.00000 0 2108604.259 24304042.609 7453303.703 10 0 59493 49500.00000 0 2247052.777 25033170.896 4340851.841 10 0 59493 50400.00000 0 2421002.111 25362382.982 1144051.175 10 0 59493 51300.00000 0 2574828.585 25285523.919 -2074984.503 10 0 59493 52200.00000 0 2653288.095 24809892.356 -5253670.980 10 0 59493 53100.00000 0 2604102.465 23955919.427 -8330175.551 10 0 59493 54000.00000 0 2380424.403 22756314.052 -11244626.717 10 0 59493 54900.00000 0 1943075.330 21254710.068 -13940287.293 10 0 59493 55800.00000 0 1262459.830 19503871.782 -16364667.064 10 0 59493 56700.00000 0 320074.115 17563533.336 -18470552.566 10 0 59493 57600.00000 0 -890456.924 15497962.813 -20216933.206 10 0 59493 58500.00000 0 -2362859.426 13373353.688 -21569805.111 10 0 59493 59400.00000 0 -4078230.390 11255153.392 -22502836.757 10 0 59493 60300.00000 0 -6005598.144 9205441.197 -22997883.329 10 0 59493 61200.00000 0 -8103000.885 7280465.470 -23045339.771 10 0 59493 62100.00000 0 -10319038.906 5528443.223 -22644325.887 10 0 59493 63000.00000 0 -12594836.110 3987713.662 -21802700.100 10 0 59493 63900.00000 0 -14866329.000 2685322.314 -20536901.902 10 0 59493 64800.00000 0 -17066787.683 1636093.947 -18871626.347 10 0 59493 65700.00000 0 -19129463.558 842231.746 -16839337.207 10 0 59493 66600.00000 0 -20990252.960 293458.043 -14479628.573 10 0 59493 67500.00000 0 -22590265.423 -32311.121 -11838447.688 10 0 59493 68400.00000 0 -23878189.225 -167787.777 -8967194.437 10 0 59493 69300.00000 0 -24812355.365 -154681.533 -5921715.519 10 0 59493 70200.00000 0 -25362413.925 -41687.263 -2761213.334 10 0 59493 71100.00000 0 -25510553.151 117822.593 452908.748 10 0 59493 72000.00000 0 -25252210.846 268302.419 3658241.697 10 0 59493 72900.00000 0 -24596249.145 354627.717 6792583.146 10 0 59493 73800.00000 0 -23564586.250 324668.980 9795142.926 10 0 59493 74700.00000 0 -22191301.478 131736.081 12607718.282 10 0 59493 75600.00000 0 -20521251.897 -263210.231 15175816.241 10 0 59493 76500.00000 0 -18608258.966 -889672.985 17449701.836 10 0 59493 77400.00000 0 -16512941.288 -1766139.196 19385352.548 10 0 59493 78300.00000 0 -14300283.871 -2899067.904 20945301.430 10 0 59493 79200.00000 0 -12037044.785 -4282388.803 22099353.661 10 0 59493 80100.00000 0 -9789106.508 -5897532.940 22825163.633 10 0 59493 81000.00000 0 -7618881.107 -7713995.040 23108662.374 10 0 59493 81900.00000 0 -5582875.878 -9690405.141 22944327.735 10 0 59493 82800.00000 0 -3729519.395 -11776066.183 22335292.469 10 0 59493 83700.00000 0 -2097337.025 -13912895.114 21293288.122 10 0 59493 84600.00000 0 -713550.631 -16037688.322 19838425.424 10 0 59493 85500.00000 0 406840.133 -18084618.600 17998814.698 10 0 59494 0.00000 0 1261457.301 -19987860.871 15810032.804 10 0 59494 900.00000 0 1860409.034 -21684239.288 13314444.515 10 0 59494 1800.00000 0 2225623.831 -23115783.339 10560393.294 10 0 59494 2700.00000 0 2389684.068 -24232089.827 7601272.076 10 0 59494 3600.00000 0 2394206.720 -24992389.066 4494494.025 10 0 59494 4500.00000 0 2287840.041 -25367229.147 1300381.568 10 0 59494 5400.00000 0 2123960.849 -25339706.551 -1919004.799 10 0 59494 6300.00000 0 1958170.112 -24906190.302 -5101075.109 10 0 59494 7200.00000 0 1845693.447 -24076508.074 -8183931.880 10 0 59494 8100.00000 0 1838797.505 -22873585.354 -11107581.001 10 0 59494 9000.00000 0 1984332.795 -21332551.872 -13815107.165 10 0 59494 9900.00000 0 2321508.340 -19499352.240 -16253789.958 10 0 59494 10800.00000 0 2879993.815 -17428918.748 -18376138.097 10 0 59494 11700.00000 0 3678430.928 -15182982.843 -20140820.954 10 0 59494 12600.00000 0 4723418.383 -12827617.210 -21513478.637 10 0 59494 13500.00000 0 6009014.610 -10430611.568 -22467394.587 10 0 59494 14400.00000 0 7516780.459 -8058792.201 -22984017.457 10 0 59494 15300.00000 0 9216361.037 -5775397.519 -23053322.134 10 0 59494 16200.00000 0 11066583.052 -3637619.238 -22674003.065 10 0 59494 17100.00000 0 13017022.229 -1694411.568 -21853496.358 10 0 59494 18000.00000 0 15009975.396 15340.590 -20607830.492 10 0 59494 18900.00000 0 16982754.788 1464218.863 -18961308.848 10 0 59494 19800.00000 0 18870208.540 2637176.900 -16946030.501 10 0 59494 20700.00000 0 20607361.644 3531917.698 -14601258.938 10 0 59494 21600.00000 0 22132066.691 4158728.783 -11972651.304 10 0 59494 22500.00000 0 23387553.215 4539784.075 -9111363.525 10 0 59494 23400.00000 0 24324768.707 4707943.714 -6073049.219 10 0 59494 24300.00000 0 24904413.310 4705104.336 -2916772.302 10 0 59494 25200.00000 0 25098583.026 4580171.059 296145.062 10 0 59494 26100.00000 0 24891952.966 4386738.304 3503316.242 10 0 59494 27000.00000 0 24282451.525 4180578.579 6642502.063 10 0 59494 27900.00000 0 23281397.851 4017046.201 9652817.136 10 0 59494 28800.00000 0 21913097.507 3948506.168 12475907.013 10 0 59494 29700.00000 0 20213913.857 4021896.958 15057073.586 10 0 59494 30600.00000 0 18230854.412 4276530.148 17346327.404 10 0 59494 31500.00000 0 16019731.458 4742219.405 19299347.124 10 0 59494 32400.00000 0 13642973.546 5437817.504 20878328.505 10 0 59494 33300.00000 0 11167178.597 6370222.831 22052707.517 10 0 59494 34200.00000 0 8660509.725 7533897.212 22799744.568 10 0 59494 35100.00000 0 6190040.948 8910915.762 23104959.516 10 0 59494 36000.00000 0 3819161.735 10471547.475 22962409.720 10 0 59494 36900.00000 0 1605146.856 12175343.394 22374806.164 10 0 59494 37800.00000 0 -403009.013 13972688.284 21353465.397 10 0 59494 38700.00000 0 -2166403.312 15806752.614 19918097.874 10 0 59494 39600.00000 0 -3657609.940 17615764.913 18096436.031 10 0 59494 40500.00000 0 -4861579.238 19335511.076 15923708.313 10 0 59494 41400.00000 0 -5776016.727 20901957.471 13441968.110 10 0 59494 42300.00000 0 -6411225.122 22253888.929 10699289.425 10 0 59494 43200.00000 0 -6789416.518 23335451.648 7748843.698 10 0 59494 44100.00000 0 -6943523.713 24098494.340 4647874.763 10 0 59494 45000.00000 0 -6915560.762 24504608.875 1456591.258 10 0 59494 45900.00000 0 -6754602.065 24526783.796 -1763002.263 10 0 59494 46800.00000 0 -6514465.598 24150600.007 -4948312.748 10 0 59494 47700.00000 0 -6251198.799 23374917.024 -8037380.566 10 0 59494 48600.00000 0 -6020474.202 22212019.544 -10970091.536 10 0 59494 49500.00000 0 -5875006.094 20687216.907 -13689354.640 10 0 59494 50400.00000 0 -5862098.693 18837911.278 -16142221.513 10 0 59494 51300.00000 0 -6021430.887 16712172.865 -18280925.117 10 0 59494 52200.00000 0 -6383172.604 14366881.434 -20063816.658 10 0 59494 53100.00000 0 -6966513.659 11865511.830 -21456181.908 10 0 59494 54000.00000 0 -7778668.435 9275656.100 -22430920.748 10 0 59494 54900.00000 0 -8814399.423 6666385.885 -22969076.551 10 0 59494 55800.00000 0 -10056080.565 4105565.376 -23060205.141 10 0 59494 56700.00000 0 -11474298.417 1657226.954 -22702576.285 10 0 59494 57600.00000 0 -13028966.368 -620881.242 -21903204.080 10 0 59494 58500.00000 0 -14670905.338 -2679473.900 -20677705.888 10 0 59494 59400.00000 0 -16343824.728 -4479543.167 -19049992.872 10 0 59494 60300.00000 0 -17986620.438 -5993734.682 -17051798.445 10 0 59494 61200.00000 0 -19535893.315 -7207228.828 -14722054.121 10 0 59494 62100.00000 0 -20928582.122 -8118092.032 -12106125.246 10 0 59494 63000.00000 0 -22104600.289 -8737085.301 -9254921.805 10 0 59494 63900.00000 0 -23009365.459 -9086939.949 -6223902.121 10 0 59494 64800.00000 0 -23596115.507 -9201133.036 -3071989.246 10 0 59494 65700.00000 0 -23827913.746 -9122215.974 139578.411 10 0 59494 66600.00000 0 -23679259.191 -8899768.462 3348439.300 10 0 59494 67500.00000 0 -23137234.553 -8588065.535 6492320.249 10 0 59494 68400.00000 0 -22202144.118 -8243557.295 9510243.554 10 0 59494 69300.00000 0 -20887615.171 -7922268.480 12343706.015 10 0 59494 70200.00000 0 -19220159.114 -7677227.972 14937807.311 10 0 59494 71100.00000 0 -17238210.847 -7556036.776 17242306.300 10 0 59494 72000.00000 0 -14990686.697 -7598676.773 19212585.407 10 0 59494 72900.00000 0 -12535120.820 -7835652.211 20810505.371 10 0 59494 73800.00000 0 -9935457.195 -8286541.810 22005134.851 10 0 59494 74700.00000 0 -7259588.327 -8959022.079 22773341.734 10 0 59494 75600.00000 0 -4576741.768 -9848402.922 23100235.704 10 0 59494 76500.00000 0 -1954821.637 -10937695.329 22979454.171 10 0 59494 77400.00000 0 542185.966 -12198209.053 22413286.452 10 0 59494 78300.00000 0 2856637.539 -13590656.282 21412633.805 10 0 59494 79200.00000 0 4939387.531 -15066716.449 19996805.734 10 0 59494 80100.00000 0 6751586.180 -16570998.129 18193155.774 10 0 59494 81000.00000 0 8266046.074 -18043317.356 16036562.823 10 0 59494 81900.00000 0 9468121.325 -19421198.275 13568766.835 10 0 59494 82800.00000 0 10356063.092 -20642492.283 10837570.577 10 0 59494 83700.00000 0 10940836.922 -21648006.420 7895921.774 10 0 59494 84600.00000 0 11245409.732 -22384030.786 4800892.477 10 0 59494 85500.00000 0 11303536.422 -22804658.373 1612574.918 99